Location: Freemans Gardens
(41.6414°N, 83.6077°W)
Time: 03:18:26
(UTC+00:00)

CZ-4 R/B - Pass Details

Date: 29 October 2020
Orbit: 579 x 589 km, 97.8° (Epoch: 26 November)

Event Time Altitude Azimuth Distance (km) Brightness Sun altitude
Rises 23:40:22 0° 158° (SSE) 2,806 7.8 -13.3°
Reaches altitude 10° 23:42:31 10° 155° (SSE) 1,911 6.9 -13.7°
Maximum altitude 23:46:37 63° 75° (ENE) 660 4.4 -14.4°
Drops below altitude 10° 23:50:45 10° 354° (N) 1,926 7.1 -15.2°
Sets 23:52:56 0° 351° (N) 2,831 8.0 -15.6°
